Flag for Chile Weather past 2 weeks in Easter Island, Chile

Now
81 °F

Scattered clouds.


Feels Like: 83 °F
Forecast: 65 / 80 °F
Wind: 6 mph from Southwest

Location: Isla De Pascua

Current Time: Mar 5, 2015 at 3:18:27 PM

Latest Report: Mar 5, 2015 at 3:00 PM


Visibility: N/A

Pressure: 30.07 "Hg

Humidity: 66%

Dew point: 68 °F

Location of Easter IslandLocation

Historic Weather in Easter Island — Graph

°F

Easter Island temperature yesterday

Maximum temperature yesterday: 81 °F (at 2:00 PM)
Minimum temperature yesterday: 64 °F (at 5:00 AM)
Average temperature yesterday: 72 °F

Past Weeks' High & Low Weather Summary

 TemperatureHumidityPressure
High82 °F (Feb 18, 2:00 PM)94% (Feb 21, 11:00 PM)30.39 "Hg (Feb 21, 11:00 PM)
Low45 °F (Feb 23, 12:00 AM)53% (Feb 19, 4:00 PM)29.95 "Hg (Feb 19, 4:00 PM)
Average74 °F75%30.17 "Hg
* Reported Feb 18 2:00 PM — Mar 5 2:00 PM, Easter Island, Weather by CustomWeather, © 2015

Note: Actual official high and low records may vary slightly from our data, if they occured in-between our weather recording intervals... More about our weather records

Advertising

Easter Island weather history for previous 24 hours

 ConditionsComfort  
Time TempWeatherWind HumidityBarometerVisibility
2:00 PM
Thu, Mar 5
81 °FScattered clouds.6 mph62%30.09 "HgN/A
1:00 PM79 °FScattered clouds.5 mph65%30.09 "HgN/A
12:00 PM79 °FScattered clouds.5 mph65%30.09 "HgN/A
11:00 AM79 °FScattered clouds.3 mph65%30.09 "HgN/A
10:00 AM75 °FScattered clouds.No wind78%30.07 "HgN/A
9:00 AM68 °FPassing clouds.3 mph88%30.07 "HgN/A
8:00 AM66 °FPassing clouds.3 mph88%30.04 "HgN/A
7:00 AM64 °FPassing clouds.3 mph94%30.04 "HgN/A
6:00 AM66 °FPassing clouds.2 mph94%30.04 "HgN/A
5:00 AM68 °FPassing clouds.2 mph88%30.07 "HgN/A
4:00 AM68 °FPassing clouds.No wind88%30.07 "HgN/A
3:00 AM68 °FPassing clouds.3 mph88%30.09 "HgN/A
2:00 AM68 °FPassing clouds.3 mph88%30.09 "HgN/A
1:00 AM70 °FPassing clouds.2 mph88%30.12 "HgN/A
12:00 AM68 °FPassing clouds.2 mph88%30.12 "HgN/A
11:00 PM
Wed, Mar 4
70 °FPassing clouds.No wind83%30.09 "HgN/A
10:00 PM72 °FPassing clouds.No wind78%30.09 "HgN/A
9:00 PM75 °FScattered clouds.No wind69%30.07 "HgN/A
8:00 PM79 °FPassing clouds.3 mph61%30.07 "HgN/A
7:00 PM79 °FScattered clouds.6 mph61%30.07 "HgN/A
6:00 PM81 °FScattered clouds.6 mph62%30.07 "HgN/A
5:00 PM81 °FScattered clouds.6 mph66%30.09 "HgN/A
4:00 PM79 °FScattered clouds.6 mph65%30.09 "HgN/A
3:00 PM77 °FScattered clouds.7 mph74%30.12 "HgN/A
Weather by CustomWeather, © 2015

See weather overviewHow to use our weather pages